Year,Month,Day,Hour,Minute,Value (Times are PST for temperature in C)
2015,06,26,00,00,19.40
2015,06,26,00,01,19.40
2015,06,26,00,02,19.40
2015,06,26,00,03,19.40
2015,06,26,00,04,19.40
2015,06,26,00,05,19.40
2015,06,26,00,06,19.40
2015,06,26,00,07,19.40
2015,06,26,00,08,19.40
2015,06,26,00,09,19.40
2015,06,26,00,10,19.40
2015,06,26,00,11,19.50
2015,06,26,00,12,19.50
2015,06,26,00,13,19.60
2015,06,26,00,14,19.60
2015,06,26,00,15,19.70
2015,06,26,00,16,19.70
2015,06,26,00,17,19.70
2015,06,26,00,18,19.80
2015,06,26,00,19,19.80
2015,06,26,00,20,19.90
2015,06,26,00,21,20.00
2015,06,26,00,22,20.00
2015,06,26,00,23,20.10
2015,06,26,00,24,20.20
2015,06,26,00,25,20.20
2015,06,26,00,26,20.30
2015,06,26,00,27,20.30
2015,06,26,00,28,20.30
2015,06,26,00,29,20.40
2015,06,26,00,30,20.40
2015,06,26,00,31,20.40
2015,06,26,00,32,20.40
2015,06,26,00,33,20.50
2015,06,26,00,34,20.50
2015,06,26,00,35,20.50
2015,06,26,00,36,20.50
2015,06,26,00,37,20.50
2015,06,26,00,38,20.60
2015,06,26,00,39,20.60
2015,06,26,00,40,20.60
2015,06,26,00,41,20.60
2015,06,26,00,42,20.60
2015,06,26,00,43,20.60
2015,06,26,00,44,20.50
2015,06,26,00,45,20.50
2015,06,26,00,46,20.50
2015,06,26,00,47,20.40
2015,06,26,00,48,20.40
2015,06,26,00,49,20.40
2015,06,26,00,50,20.40
2015,06,26,00,51,20.40
2015,06,26,00,52,20.40
2015,06,26,00,53,20.40
2015,06,26,00,54,20.40
2015,06,26,00,55,20.40
2015,06,26,00,56,20.40
2015,06,26,00,57,20.40
2015,06,26,00,58,20.40
2015,06,26,00,59,20.30
2015,06,26,01,00,20.30
2015,06,26,01,01,20.30
2015,06,26,01,02,20.30
2015,06,26,01,03,20.30
2015,06,26,01,04,20.30
2015,06,26,01,05,20.30
2015,06,26,01,06,20.30
2015,06,26,01,07,20.30
2015,06,26,01,08,20.30
2015,06,26,01,09,20.30
2015,06,26,01,10,20.30
2015,06,26,01,11,20.30
2015,06,26,01,12,20.30
2015,06,26,01,13,20.30
2015,06,26,01,14,20.40
2015,06,26,01,15,20.40
2015,06,26,01,16,20.40
2015,06,26,01,17,20.40
2015,06,26,01,18,20.40
2015,06,26,01,19,20.40
2015,06,26,01,20,20.40
2015,06,26,01,21,20.50
2015,06,26,01,22,20.50
2015,06,26,01,23,20.50
2015,06,26,01,24,20.50
2015,06,26,01,25,20.50
2015,06,26,01,26,20.50
2015,06,26,01,27,20.40
2015,06,26,01,28,20.40
2015,06,26,01,29,20.40
2015,06,26,01,30,20.50
2015,06,26,01,31,20.50
2015,06,26,01,32,20.50
2015,06,26,01,33,20.50
2015,06,26,01,34,20.60
2015,06,26,01,35,20.60
2015,06,26,01,36,20.60
2015,06,26,01,37,20.60
2015,06,26,01,38,20.60
2015,06,26,01,39,20.60
2015,06,26,01,40,20.60
2015,06,26,01,41,20.60
2015,06,26,01,42,20.60
2015,06,26,01,43,20.60
2015,06,26,01,44,20.60
2015,06,26,01,45,20.60
2015,06,26,01,46,20.60
2015,06,26,01,47,20.60
2015,06,26,01,48,20.50
2015,06,26,01,49,20.50
2015,06,26,01,50,20.40
2015,06,26,01,51,20.40
2015,06,26,01,52,20.40
2015,06,26,01,53,20.40
2015,06,26,01,54,20.40
2015,06,26,01,55,20.40
2015,06,26,01,56,20.40
2015,06,26,01,57,20.30
2015,06,26,01,58,20.30
2015,06,26,01,59,20.20
2015,06,26,02,00,20.20
2015,06,26,02,01,20.00
2015,06,26,02,02,19.90
2015,06,26,02,03,19.80
2015,06,26,02,04,19.70
2015,06,26,02,05,19.60
2015,06,26,02,06,19.60
2015,06,26,02,07,19.50
2015,06,26,02,08,19.40
2015,06,26,02,09,19.40
2015,06,26,02,10,19.30
2015,06,26,02,11,19.30
2015,06,26,02,12,19.20
2015,06,26,02,13,19.20
2015,06,26,02,14,19.20
2015,06,26,02,15,19.30
2015,06,26,02,16,19.30
2015,06,26,02,17,19.30
2015,06,26,02,18,19.40
2015,06,26,02,19,19.40
2015,06,26,02,20,19.50
2015,06,26,02,21,19.50
2015,06,26,02,22,19.60
2015,06,26,02,23,19.60
2015,06,26,02,24,19.60
2015,06,26,02,25,19.70
2015,06,26,02,26,19.70
2015,06,26,02,27,19.80
2015,06,26,02,28,19.80
2015,06,26,02,29,19.90
2015,06,26,02,30,20.00
2015,06,26,02,31,20.10
2015,06,26,02,32,20.20
2015,06,26,02,33,20.20
2015,06,26,02,34,20.30
2015,06,26,02,35,20.40
2015,06,26,02,36,20.40
2015,06,26,02,37,20.50
2015,06,26,02,38,20.60
2015,06,26,02,39,20.70
2015,06,26,02,40,20.70
2015,06,26,02,41,20.70
2015,06,26,02,42,20.80
2015,06,26,02,43,20.80
2015,06,26,02,44,20.80
2015,06,26,02,45,20.90
2015,06,26,02,46,20.90
2015,06,26,02,47,20.90
2015,06,26,02,48,20.90
2015,06,26,02,49,20.90
2015,06,26,02,50,20.90
2015,06,26,02,51,20.90
2015,06,26,02,52,20.90
2015,06,26,02,53,20.90
2015,06,26,02,54,20.90
2015,06,26,02,55,20.90
2015,06,26,02,56,20.90
2015,06,26,02,57,20.90
2015,06,26,02,58,21.00
2015,06,26,02,59,21.00
2015,06,26,03,00,21.00
2015,06,26,03,01,21.00
2015,06,26,03,02,21.00
2015,06,26,03,03,21.00
2015,06,26,03,04,21.00
2015,06,26,03,05,21.00
2015,06,26,03,06,21.00
2015,06,26,03,07,21.00
2015,06,26,03,08,21.00
2015,06,26,03,09,21.00
2015,06,26,03,10,21.00
2015,06,26,03,11,21.00
2015,06,26,03,12,21.00
2015,06,26,03,13,21.00
2015,06,26,03,14,21.00
2015,06,26,03,15,21.00
2015,06,26,03,16,21.00
2015,06,26,03,17,21.00
2015,06,26,03,18,21.00
2015,06,26,03,19,21.00
2015,06,26,03,20,21.10
2015,06,26,03,21,21.10
2015,06,26,03,22,21.10
2015,06,26,03,23,21.10
2015,06,26,03,24,21.10
2015,06,26,03,25,21.10
2015,06,26,03,26,21.10
2015,06,26,03,27,21.10
2015,06,26,03,28,21.00
2015,06,26,03,29,21.00
2015,06,26,03,30,21.00
2015,06,26,03,31,21.00
2015,06,26,03,32,21.00
2015,06,26,03,33,21.00
2015,06,26,03,34,21.00
2015,06,26,03,35,21.00
2015,06,26,03,36,21.00
2015,06,26,03,37,21.00
2015,06,26,03,38,21.00
2015,06,26,03,39,21.00
2015,06,26,03,40,21.00
2015,06,26,03,41,21.00
2015,06,26,03,42,21.00
2015,06,26,03,43,20.90
2015,06,26,03,44,20.90
2015,06,26,03,45,20.90
2015,06,26,03,46,20.90
2015,06,26,03,47,20.90
2015,06,26,03,48,20.90
2015,06,26,03,49,20.90
2015,06,26,03,50,20.90
2015,06,26,03,51,20.90
2015,06,26,03,52,20.80
2015,06,26,03,53,20.80
2015,06,26,03,54,20.80
2015,06,26,03,55,20.80
2015,06,26,03,56,20.80
2015,06,26,03,57,20.70
2015,06,26,03,58,20.70
2015,06,26,03,59,20.70
2015,06,26,04,00,20.70
2015,06,26,04,01,20.70
2015,06,26,04,02,20.60
2015,06,26,04,03,20.60
2015,06,26,04,04,20.60
2015,06,26,04,05,20.60
2015,06,26,04,06,20.50
2015,06,26,04,07,20.50
2015,06,26,04,08,20.50
2015,06,26,04,09,20.40
2015,06,26,04,10,20.40
2015,06,26,04,11,20.40
2015,06,26,04,12,20.40
2015,06,26,04,13,20.40
2015,06,26,04,14,20.40
2015,06,26,04,15,20.50
2015,06,26,04,16,20.50
2015,06,26,04,17,20.50
2015,06,26,04,18,20.50
2015,06,26,04,19,20.50
2015,06,26,04,20,20.50
2015,06,26,04,21,20.50
2015,06,26,04,22,20.40
2015,06,26,04,23,20.40
2015,06,26,04,24,20.40
2015,06,26,04,25,20.40
2015,06,26,04,26,20.30
2015,06,26,04,27,20.30
2015,06,26,04,28,20.30
2015,06,26,04,29,20.30
2015,06,26,04,30,20.20
2015,06,26,04,31,20.20
2015,06,26,04,32,20.20
2015,06,26,04,33,20.20
2015,06,26,04,34,20.20
2015,06,26,04,35,20.20
2015,06,26,04,36,20.20
2015,06,26,04,37,20.10
2015,06,26,04,38,20.10
2015,06,26,04,39,20.10
2015,06,26,04,40,20.10
2015,06,26,04,41,20.10
2015,06,26,04,42,20.10
2015,06,26,04,43,20.10
2015,06,26,04,44,20.10
2015,06,26,04,45,20.10
2015,06,26,04,46,20.00
2015,06,26,04,47,20.00
2015,06,26,04,48,20.00
2015,06,26,04,49,20.00
2015,06,26,04,50,19.90
2015,06,26,04,51,19.90
2015,06,26,04,52,19.90
2015,06,26,04,53,19.90
2015,06,26,04,54,19.90
2015,06,26,04,55,19.90
2015,06,26,04,56,19.90
2015,06,26,04,57,19.90
2015,06,26,04,58,19.90
2015,06,26,04,59,19.90
2015,06,26,05,00,19.90
2015,06,26,05,01,19.90
2015,06,26,05,02,19.90
2015,06,26,05,03,19.90
2015,06,26,05,04,19.90
2015,06,26,05,05,19.90
2015,06,26,05,06,19.90
2015,06,26,05,07,19.90
2015,06,26,05,08,19.90
2015,06,26,05,09,19.80
2015,06,26,05,10,19.80
2015,06,26,05,11,19.80
2015,06,26,05,12,19.80
2015,06,26,05,13,19.80
2015,06,26,05,14,19.80
2015,06,26,05,15,19.80
2015,06,26,05,16,19.70
2015,06,26,05,17,19.70
2015,06,26,05,18,19.70
2015,06,26,05,19,19.70
2015,06,26,05,20,19.70
2015,06,26,05,21,19.60
2015,06,26,05,22,19.60
2015,06,26,05,23,19.60
2015,06,26,05,24,19.60
2015,06,26,05,25,19.60
2015,06,26,05,26,19.60
2015,06,26,05,27,19.60
2015,06,26,05,28,19.60
2015,06,26,05,29,19.60
2015,06,26,05,30,19.60
2015,06,26,05,31,19.50
2015,06,26,05,32,19.50
2015,06,26,05,33,19.50
2015,06,26,05,34,19.50
2015,06,26,05,35,19.50
2015,06,26,05,36,19.50
2015,06,26,05,37,19.60
2015,06,26,05,38,19.60
2015,06,26,05,39,19.60
2015,06,26,05,40,19.60
2015,06,26,05,41,19.60
2015,06,26,05,42,19.60
2015,06,26,05,43,19.60
2015,06,26,05,44,19.70
2015,06,26,05,45,19.70
2015,06,26,05,46,19.70
2015,06,26,05,47,19.70
2015,06,26,05,48,19.70
2015,06,26,05,49,19.80
2015,06,26,05,50,19.80
2015,06,26,05,51,19.80
2015,06,26,05,52,19.80
2015,06,26,05,53,19.90
2015,06,26,05,54,19.90
2015,06,26,05,55,19.90
2015,06,26,05,56,19.90
2015,06,26,05,57,20.00
2015,06,26,05,58,20.00
2015,06,26,05,59,20.10
2015,06,26,06,00,20.10
2015,06,26,06,01,20.10
2015,06,26,06,02,20.20
2015,06,26,06,03,20.20
2015,06,26,06,04,20.20
2015,06,26,06,05,20.20
2015,06,26,06,06,20.20
2015,06,26,06,07,20.20
2015,06,26,06,08,20.20
2015,06,26,06,09,20.20
2015,06,26,06,10,20.10
2015,06,26,06,11,20.10
2015,06,26,06,12,20.10
2015,06,26,06,13,20.10
2015,06,26,06,14,20.10
2015,06,26,06,15,20.00
2015,06,26,06,16,20.00
2015,06,26,06,17,20.00
2015,06,26,06,18,20.00
2015,06,26,06,19,20.00
2015,06,26,06,20,20.00
2015,06,26,06,21,20.00
2015,06,26,06,22,20.00
2015,06,26,06,23,20.00
2015,06,26,06,24,20.00
2015,06,26,06,25,20.10
2015,06,26,06,26,20.10
2015,06,26,06,27,20.10
2015,06,26,06,28,20.10
2015,06,26,06,29,20.10
2015,06,26,06,30,20.20
2015,06,26,06,31,20.20
2015,06,26,06,32,20.20
2015,06,26,06,33,20.30
2015,06,26,06,34,20.30
2015,06,26,06,35,20.30
2015,06,26,06,36,20.40
2015,06,26,06,37,20.40
2015,06,26,06,38,20.40
2015,06,26,06,39,20.40
2015,06,26,06,40,20.40
2015,06,26,06,41,20.40
2015,06,26,06,42,20.40
2015,06,26,06,43,20.50
2015,06,26,06,44,20.50
2015,06,26,06,45,20.60
2015,06,26,06,46,20.60
2015,06,26,06,47,20.60
2015,06,26,06,48,20.60
2015,06,26,06,49,20.60
2015,06,26,06,50,20.60
2015,06,26,06,51,20.60
2015,06,26,06,52,20.50
2015,06,26,06,53,20.50
2015,06,26,06,54,20.50
2015,06,26,06,55,20.40
2015,06,26,06,56,20.40
2015,06,26,06,57,20.40
2015,06,26,06,58,20.40
2015,06,26,06,59,20.40
2015,06,26,07,00,20.40
2015,06,26,07,01,20.40
2015,06,26,07,02,20.50
2015,06,26,07,03,20.50
2015,06,26,07,04,20.60
2015,06,26,07,05,20.60
2015,06,26,07,06,20.60
2015,06,26,07,07,20.60
2015,06,26,07,08,20.60
2015,06,26,07,09,20.60
2015,06,26,07,10,20.70
2015,06,26,07,11,20.70
2015,06,26,07,12,20.80
2015,06,26,07,13,20.80
2015,06,26,07,14,20.80
2015,06,26,07,15,20.90
2015,06,26,07,16,21.00
2015,06,26,07,17,21.00
2015,06,26,07,18,21.10
2015,06,26,07,19,21.10
2015,06,26,07,20,21.10
2015,06,26,07,21,21.20
2015,06,26,07,22,21.20
2015,06,26,07,23,21.20
2015,06,26,07,24,21.20
2015,06,26,07,25,21.20
2015,06,26,07,26,21.30
2015,06,26,07,27,21.30
2015,06,26,07,28,21.40
2015,06,26,07,29,21.40
2015,06,26,07,30,21.40
2015,06,26,07,31,21.40
2015,06,26,07,32,21.40
2015,06,26,07,33,21.40
2015,06,26,07,34,21.50
2015,06,26,07,35,21.50
2015,06,26,07,36,21.50
2015,06,26,07,37,21.50
2015,06,26,07,38,21.60
2015,06,26,07,39,21.60
2015,06,26,07,40,21.60
2015,06,26,07,41,21.60
2015,06,26,07,42,21.60
2015,06,26,07,43,21.60
2015,06,26,07,44,21.60
2015,06,26,07,45,21.50
2015,06,26,07,46,21.50
2015,06,26,07,47,21.50
2015,06,26,07,48,21.50
2015,06,26,07,49,21.50
2015,06,26,07,50,21.50
2015,06,26,07,51,21.50
2015,06,26,07,52,21.50
2015,06,26,07,53,21.50
2015,06,26,07,54,21.50
2015,06,26,07,55,21.60
2015,06,26,07,56,21.60
2015,06,26,07,57,21.70
2015,06,26,07,58,21.70
2015,06,26,07,59,21.70
2015,06,26,08,00,21.70
2015,06,26,08,01,21.70
2015,06,26,08,02,21.70
2015,06,26,08,03,21.80
2015,06,26,08,04,21.80
2015,06,26,08,05,21.80
2015,06,26,08,06,21.80
2015,06,26,08,07,21.80
2015,06,26,08,08,21.80
2015,06,26,08,09,21.80
2015,06,26,08,10,21.90
2015,06,26,08,11,21.90
2015,06,26,08,12,21.90
2015,06,26,08,13,21.90
2015,06,26,08,14,21.90
2015,06,26,08,15,21.80
2015,06,26,08,16,21.80
2015,06,26,08,17,21.80
2015,06,26,08,18,21.80
2015,06,26,08,19,21.80
2015,06,26,08,20,21.90
2015,06,26,08,21,21.90
2015,06,26,08,22,21.90
2015,06,26,08,23,22.00
2015,06,26,08,24,22.10
2015,06,26,08,25,22.10
2015,06,26,08,26,22.10
2015,06,26,08,27,22.10
2015,06,26,08,28,22.10
2015,06,26,08,29,22.10
2015,06,26,08,30,22.10
2015,06,26,08,31,22.20
2015,06,26,08,32,22.20
2015,06,26,08,33,22.10
2015,06,26,08,34,22.10
2015,06,26,08,35,22.10
2015,06,26,08,36,22.10
2015,06,26,08,37,22.10
2015,06,26,08,38,22.10
2015,06,26,08,39,22.10
2015,06,26,08,40,22.10
2015,06,26,08,41,22.10
2015,06,26,08,42,22.10
2015,06,26,08,43,22.20
2015,06,26,08,44,22.30
2015,06,26,08,45,22.40
2015,06,26,08,46,22.40
2015,06,26,08,47,22.40
2015,06,26,08,48,22.40
2015,06,26,08,49,22.40
2015,06,26,08,50,22.40
2015,06,26,08,51,22.40
2015,06,26,08,52,22.50
2015,06,26,08,53,22.50
2015,06,26,08,54,22.40
2015,06,26,08,55,22.40
2015,06,26,08,56,22.40
2015,06,26,08,57,22.50
2015,06,26,08,58,22.50
2015,06,26,08,59,22.50
2015,06,26,09,00,22.60
2015,06,26,09,01,22.60
2015,06,26,09,02,22.60
2015,06,26,09,03,22.60
2015,06,26,09,04,22.70
2015,06,26,09,05,22.70
2015,06,26,09,06,22.80
2015,06,26,09,07,22.80
2015,06,26,09,08,22.80
2015,06,26,09,09,22.80
2015,06,26,09,10,22.80
2015,06,26,09,11,22.90
2015,06,26,09,12,22.90
2015,06,26,09,13,22.90
2015,06,26,09,14,22.90
2015,06,26,09,15,23.00
2015,06,26,09,16,23.10
2015,06,26,09,17,23.10
2015,06,26,09,18,23.10
2015,06,26,09,19,23.10
2015,06,26,09,20,23.10
2015,06,26,09,21,23.10
2015,06,26,09,22,23.10
2015,06,26,09,23,23.10
2015,06,26,09,24,23.20
2015,06,26,09,25,23.20
2015,06,26,09,26,23.10
2015,06,26,09,27,23.10
2015,06,26,09,28,23.20
2015,06,26,09,29,23.20
2015,06,26,09,30,23.20
2015,06,26,09,31,23.20
2015,06,26,09,32,23.20
2015,06,26,09,33,23.20
2015,06,26,09,34,23.20
2015,06,26,09,35,23.20
2015,06,26,09,36,23.10
2015,06,26,09,37,23.10
2015,06,26,09,38,23.10
2015,06,26,09,39,23.10
2015,06,26,09,40,23.10
2015,06,26,09,41,23.10
2015,06,26,09,42,23.20
2015,06,26,09,43,23.20
2015,06,26,09,44,23.20
2015,06,26,09,45,23.20
2015,06,26,09,46,23.20
2015,06,26,09,47,23.20
2015,06,26,09,48,23.20
2015,06,26,09,49,23.20
2015,06,26,09,50,23.20
2015,06,26,09,51,23.10
2015,06,26,09,52,23.00
2015,06,26,09,53,22.90
2015,06,26,09,54,22.90
2015,06,26,09,55,22.90
2015,06,26,09,56,22.90
2015,06,26,09,57,22.90
2015,06,26,09,58,22.90
2015,06,26,09,59,22.90
2015,06,26,10,00,23.00
2015,06,26,10,01,23.10
2015,06,26,10,02,23.10
2015,06,26,10,03,23.10
2015,06,26,10,04,23.20
2015,06,26,10,05,23.30
2015,06,26,10,06,23.30
2015,06,26,10,07,23.30
2015,06,26,10,08,23.30
2015,06,26,10,09,23.40
2015,06,26,10,10,23.50
2015,06,26,10,11,23.60
2015,06,26,10,12,23.60
2015,06,26,10,13,23.70
2015,06,26,10,14,23.70
2015,06,26,10,15,23.70
2015,06,26,10,16,23.70
2015,06,26,10,17,23.70
2015,06,26,10,18,23.70
2015,06,26,10,19,23.70
2015,06,26,10,20,23.70
2015,06,26,10,21,23.70
2015,06,26,10,22,23.70
2015,06,26,10,23,23.60
2015,06,26,10,24,23.60
2015,06,26,10,25,23.60
2015,06,26,10,26,23.70
2015,06,26,10,27,23.80
2015,06,26,10,28,23.90
2015,06,26,10,29,23.90
2015,06,26,10,30,24.00
2015,06,26,10,31,24.00
2015,06,26,10,32,24.00
2015,06,26,10,33,23.90
2015,06,26,10,34,24.00
2015,06,26,10,35,24.00
2015,06,26,10,36,24.10
2015,06,26,10,37,24.10
2015,06,26,10,38,24.20
2015,06,26,10,39,24.20
2015,06,26,10,40,24.30
2015,06,26,10,41,24.40
2015,06,26,10,42,24.50
2015,06,26,10,43,24.60
2015,06,26,10,44,24.70
2015,06,26,10,45,24.80
2015,06,26,10,46,24.80
2015,06,26,10,47,24.80
2015,06,26,10,48,24.80
2015,06,26,10,49,24.70
2015,06,26,10,50,24.60
2015,06,26,10,51,24.60
2015,06,26,10,52,24.50
2015,06,26,10,53,24.50
2015,06,26,10,54,24.40
2015,06,26,10,55,24.30
2015,06,26,10,56,24.30
2015,06,26,10,57,24.30
2015,06,26,10,58,24.30
2015,06,26,10,59,24.30
2015,06,26,11,00,24.30
2015,06,26,11,01,24.40
2015,06,26,11,02,24.40
2015,06,26,11,03,24.40
2015,06,26,11,04,24.40
2015,06,26,11,05,24.40
2015,06,26,11,06,24.40
2015,06,26,11,07,24.30
2015,06,26,11,08,24.30
2015,06,26,11,09,24.30
2015,06,26,11,10,24.30
2015,06,26,11,11,24.20
2015,06,26,11,12,24.20
2015,06,26,11,13,24.30
2015,06,26,11,14,24.30
2015,06,26,11,15,24.40
2015,06,26,11,16,24.40
2015,06,26,11,17,24.50
2015,06,26,11,18,24.40
2015,06,26,11,19,24.40
2015,06,26,11,20,24.40
2015,06,26,11,21,24.50
2015,06,26,11,22,24.60
2015,06,26,11,23,24.70
2015,06,26,11,24,24.80
2015,06,26,11,25,24.90
2015,06,26,11,26,25.00
2015,06,26,11,27,25.20
2015,06,26,11,28,25.30
2015,06,26,11,29,25.30
2015,06,26,11,30,25.40
2015,06,26,11,31,25.40
2015,06,26,11,32,25.50
2015,06,26,11,33,25.50
2015,06,26,11,34,25.60
2015,06,26,11,35,25.70
2015,06,26,11,36,25.80
2015,06,26,11,37,25.90
2015,06,26,11,38,25.90
2015,06,26,11,39,25.90
2015,06,26,11,40,25.80
2015,06,26,11,41,25.60
2015,06,26,11,42,25.60
2015,06,26,11,43,25.60
2015,06,26,11,44,25.70
2015,06,26,11,45,25.70
2015,06,26,11,46,25.70
2015,06,26,11,47,25.70
2015,06,26,11,48,25.70
2015,06,26,11,49,25.70
2015,06,26,11,50,25.70
2015,06,26,11,51,25.70
2015,06,26,11,52,25.70
2015,06,26,11,53,25.70
2015,06,26,11,54,25.70
2015,06,26,11,55,25.80
2015,06,26,11,56,25.80
2015,06,26,11,57,25.90
2015,06,26,11,58,25.90
2015,06,26,11,59,25.90
2015,06,26,12,00,25.90
2015,06,26,12,01,25.90
2015,06,26,12,02,25.80
2015,06,26,12,03,25.80
2015,06,26,12,04,25.70
2015,06,26,12,05,25.60
2015,06,26,12,06,25.50
2015,06,26,12,07,25.50
2015,06,26,12,08,25.50
2015,06,26,12,09,25.60
2015,06,26,12,10,25.60
2015,06,26,12,11,25.70
2015,06,26,12,12,25.70
2015,06,26,12,13,25.80
2015,06,26,12,14,25.80
2015,06,26,12,15,25.80
2015,06,26,12,16,25.70
2015,06,26,12,17,25.80
2015,06,26,12,18,25.90
2015,06,26,12,19,26.00
2015,06,26,12,20,26.10
2015,06,26,12,21,26.30
2015,06,26,12,22,26.40
2015,06,26,12,23,26.60
2015,06,26,12,24,26.60
2015,06,26,12,25,26.70
2015,06,26,12,26,26.70
2015,06,26,12,27,26.70
2015,06,26,12,28,26.70
2015,06,26,12,29,26.60
2015,06,26,12,30,26.60
2015,06,26,12,31,26.60
2015,06,26,12,32,26.60
2015,06,26,12,33,26.60
2015,06,26,12,34,26.70
2015,06,26,12,35,26.70
2015,06,26,12,36,26.80
2015,06,26,12,37,26.90
2015,06,26,12,38,26.90
2015,06,26,12,39,27.00
2015,06,26,12,40,27.10
2015,06,26,12,41,27.10
2015,06,26,12,42,27.20
2015,06,26,12,43,27.20
2015,06,26,12,44,27.20
2015,06,26,12,45,27.20
2015,06,26,12,46,27.10
2015,06,26,12,47,27.10
2015,06,26,12,48,27.10
2015,06,26,12,49,27.00
2015,06,26,12,50,26.90
2015,06,26,12,51,26.90
2015,06,26,12,52,26.80
2015,06,26,12,53,26.80
2015,06,26,12,54,26.80
2015,06,26,12,55,26.90
2015,06,26,12,56,26.90
2015,06,26,12,57,26.90
2015,06,26,12,58,26.90
2015,06,26,12,59,26.90
2015,06,26,13,00,26.90
2015,06,26,13,01,26.90
2015,06,26,13,02,26.90
2015,06,26,13,03,26.90
2015,06,26,13,04,26.90
2015,06,26,13,05,26.90
2015,06,26,13,06,26.80
2015,06,26,13,07,26.80
2015,06,26,13,08,26.80
2015,06,26,13,09,26.90
2015,06,26,13,10,27.00
2015,06,26,13,11,27.00
2015,06,26,13,12,27.10
2015,06,26,13,13,27.20
2015,06,26,13,14,27.20
2015,06,26,13,15,27.20
2015,06,26,13,16,27.20
2015,06,26,13,17,27.20
2015,06,26,13,18,27.10
2015,06,26,13,19,27.00
2015,06,26,13,20,27.10
2015,06,26,13,21,27.10
2015,06,26,13,22,27.30
2015,06,26,13,23,27.40
2015,06,26,13,24,27.50
2015,06,26,13,25,27.60
2015,06,26,13,26,27.60
2015,06,26,13,27,27.50
2015,06,26,13,28,27.50
2015,06,26,13,29,27.40
2015,06,26,13,30,27.40
2015,06,26,13,31,27.40
2015,06,26,13,32,27.40
2015,06,26,13,33,27.40
2015,06,26,13,34,27.40
2015,06,26,13,35,27.40
2015,06,26,13,36,27.50
2015,06,26,13,37,27.50
2015,06,26,13,38,27.40
2015,06,26,13,39,27.30
2015,06,26,13,40,27.30
2015,06,26,13,41,27.20
2015,06,26,13,42,27.20
2015,06,26,13,43,27.20
2015,06,26,13,44,27.30
2015,06,26,13,45,27.40
2015,06,26,13,46,27.50
2015,06,26,13,47,27.50
2015,06,26,13,48,27.60
2015,06,26,13,49,27.70
2015,06,26,13,50,27.80
2015,06,26,13,51,27.80
2015,06,26,13,52,27.90
2015,06,26,13,53,28.00
2015,06,26,13,54,28.10
2015,06,26,13,55,28.10
2015,06,26,13,56,28.10
2015,06,26,13,57,28.10
2015,06,26,13,58,28.10
2015,06,26,13,59,28.20
2015,06,26,14,00,28.30
2015,06,26,14,01,28.40
2015,06,26,14,02,28.40
2015,06,26,14,03,28.50
2015,06,26,14,04,28.50
2015,06,26,14,05,28.60
2015,06,26,14,06,28.60
2015,06,26,14,07,28.50
2015,06,26,14,08,28.50
2015,06,26,14,09,28.30
2015,06,26,14,10,28.30
2015,06,26,14,11,28.20
2015,06,26,14,12,28.20
2015,06,26,14,13,28.20
2015,06,26,14,14,28.20
2015,06,26,14,15,28.20
2015,06,26,14,16,28.20
2015,06,26,14,17,28.20
2015,06,26,14,18,28.20
2015,06,26,14,19,28.20
2015,06,26,14,20,28.20
2015,06,26,14,21,28.30
2015,06,26,14,22,28.30
2015,06,26,14,23,28.40
2015,06,26,14,24,28.50
2015,06,26,14,25,28.50
2015,06,26,14,26,28.60
2015,06,26,14,27,28.60
2015,06,26,14,28,28.70
2015,06,26,14,29,28.60
2015,06,26,14,30,28.60
2015,06,26,14,31,28.50
2015,06,26,14,32,28.50
2015,06,26,14,33,28.60
2015,06,26,14,34,28.60
2015,06,26,14,35,28.60
2015,06,26,14,36,28.70
2015,06,26,14,37,28.80
2015,06,26,14,38,28.80
2015,06,26,14,39,28.90
2015,06,26,14,40,28.90
2015,06,26,14,41,28.90
2015,06,26,14,42,28.80
2015,06,26,14,43,28.80
2015,06,26,14,44,28.90
2015,06,26,14,45,28.90
2015,06,26,14,46,28.90
2015,06,26,14,47,29.00
2015,06,26,14,48,29.00
2015,06,26,14,49,29.10
2015,06,26,14,50,29.20
2015,06,26,14,51,29.30
2015,06,26,14,52,29.40
2015,06,26,14,53,29.50
2015,06,26,14,54,29.50
2015,06,26,14,55,29.60
2015,06,26,14,56,29.60
2015,06,26,14,57,29.60
2015,06,26,14,58,29.70
2015,06,26,14,59,29.70
2015,06,26,15,00,29.60
2015,06,26,15,01,29.50
2015,06,26,15,02,29.40
2015,06,26,15,03,29.30
2015,06,26,15,04,29.40
2015,06,26,15,05,29.40
2015,06,26,15,06,29.40
2015,06,26,15,07,29.40
2015,06,26,15,08,29.30
2015,06,26,15,09,29.20
2015,06,26,15,10,29.20
2015,06,26,15,11,29.20
2015,06,26,15,12,29.20
2015,06,26,15,13,29.10
2015,06,26,15,14,29.00
2015,06,26,15,15,28.90
2015,06,26,15,16,28.90
2015,06,26,15,17,28.90
2015,06,26,15,18,28.90
2015,06,26,15,19,29.00
2015,06,26,15,20,29.10
2015,06,26,15,21,29.10
2015,06,26,15,22,29.20
2015,06,26,15,23,29.30
2015,06,26,15,24,29.40
2015,06,26,15,25,29.50
2015,06,26,15,26,29.50
2015,06,26,15,27,29.60
2015,06,26,15,28,29.70
2015,06,26,15,29,29.80
2015,06,26,15,30,29.70
2015,06,26,15,31,29.60
2015,06,26,15,32,29.60
2015,06,26,15,33,29.60
2015,06,26,15,34,29.60
2015,06,26,15,35,29.60
2015,06,26,15,36,29.60
2015,06,26,15,37,29.50
2015,06,26,15,38,29.50
2015,06,26,15,39,29.40
2015,06,26,15,40,29.50
2015,06,26,15,41,29.50
2015,06,26,15,42,29.50
2015,06,26,15,43,29.50
2015,06,26,15,44,29.60
2015,06,26,15,45,29.60
2015,06,26,15,46,29.60
2015,06,26,15,47,29.60
2015,06,26,15,48,29.70
2015,06,26,15,49,29.80
2015,06,26,15,50,29.80
2015,06,26,15,51,29.90
2015,06,26,15,52,29.90
2015,06,26,15,53,29.90
2015,06,26,15,54,29.90
2015,06,26,15,55,29.80
2015,06,26,15,56,29.80
2015,06,26,15,57,29.70
2015,06,26,15,58,29.70
2015,06,26,15,59,29.70
2015,06,26,16,00,29.60
2015,06,26,16,01,29.70
2015,06,26,16,02,29.70
2015,06,26,16,03,29.70
2015,06,26,16,04,29.60
2015,06,26,16,05,29.70
2015,06,26,16,06,29.70
2015,06,26,16,07,29.80
2015,06,26,16,08,29.90
2015,06,26,16,09,30.00
2015,06,26,16,10,30.00
2015,06,26,16,11,30.10
2015,06,26,16,12,30.30
2015,06,26,16,13,30.30
2015,06,26,16,14,30.40
2015,06,26,16,15,30.40
2015,06,26,16,16,30.40
2015,06,26,16,17,30.40
2015,06,26,16,18,30.50
2015,06,26,16,19,30.50
2015,06,26,16,20,30.60
2015,06,26,16,21,30.60
2015,06,26,16,22,30.70
2015,06,26,16,23,30.60
2015,06,26,16,24,30.60
2015,06,26,16,25,30.40
2015,06,26,16,26,30.20
2015,06,26,16,27,30.10
2015,06,26,16,28,30.00
2015,06,26,16,29,29.90
2015,06,26,16,30,29.90
2015,06,26,16,31,29.90
2015,06,26,16,32,29.90
2015,06,26,16,33,30.00
2015,06,26,16,34,30.10
2015,06,26,16,35,30.00
2015,06,26,16,36,30.00
2015,06,26,16,37,29.90
2015,06,26,16,38,29.90
2015,06,26,16,39,29.90
2015,06,26,16,40,29.90
2015,06,26,16,41,30.00
2015,06,26,16,42,30.10
2015,06,26,16,43,30.20
2015,06,26,16,44,30.20
2015,06,26,16,45,30.30
2015,06,26,16,46,30.30
2015,06,26,16,47,30.30
2015,06,26,16,48,30.30
2015,06,26,16,49,30.30
2015,06,26,16,50,30.40
2015,06,26,16,51,30.40
2015,06,26,16,52,30.40
2015,06,26,16,53,30.50
2015,06,26,16,54,30.50
2015,06,26,16,55,30.50
2015,06,26,16,56,30.60
2015,06,26,16,57,30.60
2015,06,26,16,58,30.60
2015,06,26,16,59,30.60
2015,06,26,17,00,30.70
2015,06,26,17,01,30.70
2015,06,26,17,02,30.60
2015,06,26,17,03,30.60
2015,06,26,17,04,30.60
2015,06,26,17,05,30.70
2015,06,26,17,06,30.70
2015,06,26,17,07,30.60
2015,06,26,17,08,30.60
2015,06,26,17,09,30.60
2015,06,26,17,10,30.60
2015,06,26,17,11,30.60
2015,06,26,17,12,30.60
2015,06,26,17,13,30.50
2015,06,26,17,14,30.40
2015,06,26,17,15,30.40
2015,06,26,17,16,30.30
2015,06,26,17,17,30.40
2015,06,26,17,18,30.40
2015,06,26,17,19,30.30